K5VP Weather Reports


time (UTC)temp
C
wind
direction
speed
KPH
gust
KPH
rain 1hr
cm
rain 24hr
cm
rain mn
cm
humidity
%
barometer
mb
20260509132513 17 41 0.0 0.0 0.00 0.00 0.00 83 1011.4
20260509132015 16 179 0.0 0.0 0.00 0.00 0.00 85 1011.5
20260509131454 16 191 0.0 0.0 0.00 0.00 0.00 87 1011.4
20260509130944 15 192 0.0 0.0 0.00 0.00 0.00 89 1011.4
20260509130428 15 198 0.0 0.0 0.00 0.00 0.00 90 1011.3
20260509125929 14 187 0.0 0.0 0.00 0.00 0.00 92 1011.4
20260509125423 13 193 0.0 0.0 0.00 0.00 0.00 92 1011.3
20260509124929 13 203 0.0 0.0 0.00 0.00 0.00 93 1011.3
20260509124424 13 203 0.0 0.0 0.00 0.00 0.00 93 1011.4
20260509123907 13 203 0.0 0.0 0.00 0.00 0.00 94 1011.4
20260509123406 12 206 0.0 0.0 0.00 0.00 0.00 94 1011.4
20260509122906 12 206 0.0 0.0 0.00 0.00 0.00 94 1011.5
20260509122356 12 184 0.0 0.0 0.00 0.00 0.00 95 1011.4
20260509121849 12 184 0.0 0.0 0.00 0.00 0.00 95 1011.4
20260509121356 12 144 0.0 0.0 0.00 0.00 0.00 95 1011.6
20260509120850 11 131 0.0 0.0 0.00 0.00 0.00 95 1011.4
20260509120329 11 115 0.0 0.0 0.00 0.00 0.00 95 1011.2
20260509115833 11 114 0.0 0.0 0.00 0.00 0.00 95 1011.2
20260509115312 11 193 0.0 0.0 0.00 0.00 0.00 95 1011.0
20260509114806 11 193 0.0 0.0 0.00 0.00 0.00 95 1011.0
20260509114308 11 195 0.0 0.0 0.00 0.00 0.00 94 1010.9
20260509113808 11 199 0.0 0.0 0.00 0.00 0.00 94 1010.8
20260509113304 11 200 0.0 0.0 0.00 0.00 0.00 94 1010.7
20260509112750 11 200 0.0 0.0 0.00 0.00 0.00 94 1010.7
20260509112237 11 201 0.0 0.0 0.00 0.00 0.00 94 1010.6
20260509111733 11 201 0.0 0.0 0.00 0.00 0.00 94 1010.6
20260509111211 11 203 0.0 0.0 0.00 0.00 0.00 94 1010.5
20260509110655 11 203 0.0 0.0 0.00 0.00 0.00 94 1010.4
20260509110156 11 203 0.0 0.0 0.00 0.00 0.00 94 1010.4
20260509105701 11 204 0.0 0.0 0.00 0.00 0.00 94 1010.2
20260509105144 11 205 0.0 0.0 0.00 0.00 0.00 94 1010.1
20260509104644 11 205 0.0 0.0 0.00 0.00 0.00 94 1010.1
20260509104135 11 205 0.0 0.0 0.00 0.00 0.00 94 1010.1
20260509103632 11 206 0.0 0.0 0.00 0.00 0.00 94 1010.1
20260509103133 11 207 0.0 0.0 0.00 0.00 0.00 94 1010.2
20260509102615 11 206 0.0 0.0 0.00 0.00 0.00 94 1010.2
20260509102116 11 206 0.0 0.0 0.00 0.00 0.00 93 1010.2
20260509101620 11 206 0.0 0.0 0.00 0.00 0.00 93 1010.2
20260509101127 11 206 0.0 0.0 0.00 0.00 0.00 93 1010.2
20260509100628 11 206 0.0 0.0 0.00 0.00 0.00 93 1010.4
20260509100130 11 207 0.0 0.0 0.00 0.00 0.00 93 1010.2
20260509095637 11 206 0.0 0.0 0.00 0.00 0.00 93 1010.2
20260509095134 11 207 0.0 0.0 0.00 0.00 0.00 93 1010.1
20260509094615 11 207 0.0 0.0 0.00 0.00 0.00 92 1010.1
20260509094117 11 206 0.0 0.0 0.00 0.00 0.00 92 1010.1
20260509093558 11 206 0.0 0.0 0.00 0.00 0.00 92 1010.1
20260509093104 11 206 0.0 0.0 0.00 0.00 0.00 92 1010.0
20260509092542 11 206 0.0 0.0 0.00 0.00 0.00 91 1009.9
20260509092043 11 206 0.0 0.0 0.00 0.00 0.00 91 1010.0
20260509091549 12 206 0.0 0.0 0.00 0.00 0.00 91 1010.0
20260509091051 12 206 0.0 0.0 0.00 0.00 0.00 91 1010.0
20260509090544 12 207 0.0 0.0 0.00 0.00 0.00 90 1010.0
20260509090032 12 206 0.0 0.0 0.00 0.00 0.00 90 1010.1
20260509085515 12 206 0.0 0.0 0.00 0.00 0.00 90 1010.1
20260509085008 12 206 0.0 0.0 0.00 0.00 0.00 90 1010.2
20260509084501 12 206 0.0 0.0 0.00 0.00 0.00 90 1010.2
20260509084000 12 207 0.0 0.0 0.00 0.00 0.00 89 1010.3
20260509083500 12 206 0.0 0.0 0.00 0.00 0.00 90 1010.3
20260509083001 12 206 0.0 0.0 0.00 0.00 0.00 89 1010.4
20260509082445 12 206 0.0 0.0 0.00 0.00 0.00 89 1010.4
20260509081944 12 206 0.0 0.0 0.00 0.00 0.00 88 1010.5
20260509081430 12 206 0.0 0.0 0.00 0.00 0.00 88 1010.4
20260509080916 13 207 0.0 0.0 0.00 0.00 0.00 87 1010.3
20260509080412 13 207 0.0 0.0 0.00 0.00 0.00 87 1010.4
20260509075918 13 206 0.0 0.0 0.00 0.00 0.00 86 1010.4
20260509075420 13 206 0.0 0.0 0.00 0.00 0.00 86 1010.3
20260509074403 13 206 0.0 0.0 0.00 0.00 0.00 85 1010.5
20260509073740 13 207 0.0 0.0 0.00 0.00 0.00 84 1010.4
20260509073114 13 206 0.0 0.0 0.00 0.00 0.00 85 1010.5
20260509072455 13 134 0.0 0.0 0.00 0.00 0.00 85 1010.4
20260509071833 13 134 0.0 0.0 0.00 0.00 0.00 86 1010.7
20260509071221 13 135 0.0 0.0 0.00 0.00 0.00 85 1010.4
20260509070608 13 134 0.0 0.0 0.00 0.00 0.00 85 1010.4
20260509065939 13 134 0.0 0.0 0.00 0.00 0.00 86 1010.4
20260509065310 13 134 0.0 0.0 0.00 0.00 0.00 86 1010.7
20260509064635 13 134 0.0 0.0 0.00 0.00 0.00 85 1010.6
20260509064011 13 134 0.0 0.0 0.00 0.00 0.00 86 1010.7
20260509063345 13 135 0.0 0.0 0.00 0.00 0.00 86 1010.6
20260509062726 13 134 0.0 0.0 0.00 0.00 0.00 86 1010.5
20260509062113 13 134 0.0 0.0 0.00 0.00 0.00 86 1010.5
20260509061441 12 135 0.0 0.0 0.00 0.00 0.00 87 1010.3
20260509060805 12 134 0.0 0.0 0.00 0.00 0.00 87 1010.9
20260509060133 12 135 0.0 0.0 0.00 0.00 0.00 87 1011.1
20260509055517 12 135 0.0 0.0 0.00 0.00 0.00 87 1011.3
20260509054853 12 134 0.0 0.0 0.00 0.00 0.00 87 1011.4
20260509054241 12 134 0.0 0.0 0.00 0.00 0.00 87 1011.5
20260509053606 12 134 0.0 0.0 0.00 0.00 0.00 86 1011.6
20260509052948 12 134 0.0 0.0 0.00 0.00 0.00 86 1011.8
20260509052335 12 135 0.0 0.0 0.00 0.00 0.00 86 1011.7
20260509051726 12 134 0.0 0.0 0.00 0.00 0.00 86 1011.7
20260509051106 12 134 0.0 0.0 0.00 0.00 0.00 86 1011.7
20260509050459 12 135 0.0 0.0 0.00 0.00 0.00 86 1011.6
20260509045838 12 134 0.0 0.0 0.00 0.00 0.00 85 1011.5
20260509045219 12 134 0.0 0.0 0.00 0.00 0.00 85 1011.5
20260509044552 12 134 0.0 0.0 0.00 0.00 0.00 85 1011.6
20260509043937 12 134 0.0 0.0 0.00 0.00 0.00 85 1011.8
20260509043330 12 134 0.0 0.0 0.00 0.00 0.00 85 1011.9
20260509042702 12 135 0.0 0.0 0.00 0.00 0.00 85 1011.7
20260509042026 12 134 0.0 0.0 0.00 0.00 0.00 85 1011.6
20260509041403 12 134 0.0 0.0 0.00 0.00 0.00 84 1011.5
20260509040730 12 134 0.0 0.0 0.00 0.00 0.00 83 1011.4
20260509040053 12 135 0.0 0.0 0.00 0.00 0.00 82 1011.4
20260509035444 12 134 0.0 0.0 0.00 0.00 0.00 82 1011.3
20260509034809 13 134 0.0 0.0 0.00 0.00 0.00 81 1011.4
20260509034146 13 134 0.0 0.0 0.00 0.00 0.00 80 1011.3
20260509033512 13 134 0.0 0.0 0.00 0.00 0.00 80 1011.5
20260509032841 13 134 0.0 0.0 0.00 0.00 0.00 80 1011.5
20260509032211 13 134 0.0 0.0 0.00 0.00 0.00 79 1011.8
20260509031558 13 134 0.0 0.0 0.00 0.00 0.00 79 1011.8
20260509030922 13 134 0.0 0.0 0.00 0.00 0.00 79 1011.8
20260509030250 13 134 0.0 0.0 0.00 0.00 0.00 78 1011.5
20260509025614 13 134 0.0 0.0 0.00 0.00 0.00 77 1011.6
20260509024956 13 134 0.0 0.0 0.00 0.00 0.00 78 1011.4
20260509024345 13 134 0.0 0.0 0.00 0.00 0.00 77 1011.3
20260509023725 14 134 0.0 0.0 0.00 0.00 0.00 77 1011.4
20260509023100 14 135 0.0 0.0 0.00 0.00 0.00 76 1011.4
20260509022439 14 134 0.0 0.0 0.00 0.00 0.00 74 1011.3
20260509021823 14 134 0.0 0.0 0.00 0.00 0.00 71 1011.3
20260509021158 14 134 0.0 0.0 0.00 0.00 0.00 71 1011.3
20260509020546 15 134 0.0 0.0 0.00 0.00 0.00 70 1011.2
20260509015922 15 134 0.0 0.0 0.00 0.00 0.00 68 1011.2
20260509015253 15 134 0.0 0.0 0.00 0.00 0.00 67 1011.2
20260509014619 15 134 0.0 0.0 0.00 0.00 0.00 67 1011.3
20260509013959 15 134 0.0 0.0 0.00 0.00 0.00 67 1011.4
20260509013324 15 134 0.0 0.0 0.00 0.00 0.00 67 1011.3
20260509012647 16 134 0.0 0.0 0.00 0.00 0.00 67 1011.2
20260509012028 16 134 0.0 0.0 0.00 0.00 0.00 66 1011.3
20260509011419 16 134 0.0 0.0 0.00 0.00 0.00 66 1011.4
20260509010758 16 134 0.0 0.0 0.00 0.00 0.00 65 1011.3
20260509010127 17 134 0.0 0.0 0.00 0.00 0.00 63 1011.3
20260509005510 17 134 0.0 0.0 0.00 0.00 0.00 62 1011.3
20260509004844 17 134 0.0 0.0 0.00 0.00 0.00 60 1011.3
20260509004225 18 134 0.0 0.0 0.00 0.00 0.00 60 1011.2
20260509003614 18 134 0.0 0.0 0.00 0.00 0.00 59 1011.3
20260509002945 18 134 0.0 0.0 0.00 0.00 0.00 57 1011.4
20260509002327 19 132 0.0 0.0 0.00 0.00 0.00 56 1011.3
20260509001700 20 129 0.0 0.0 0.00 0.00 0.00 54 1011.3
20260509001042 20 128 0.0 0.0 0.00 0.00 0.00 52 1011.4
20260509000427 21 126 0.0 0.0 0.00 0.00 0.00 50 1011.4
20260508235803 21 125 0.0 0.0 0.00 0.00 0.00 48 1011.4
20260508235142 22 124 0.0 0.0 0.00 0.00 0.00 48 1011.5
20260508234528 22 22 0.0 0.0 0.00 0.00 0.00 44 1011.6
20260508233859 22 168 0.0 0.0 0.00 0.00 0.00 44 1011.7
20260508233244 23 193 0.0 0.0 0.00 0.00 0.00 45 1011.7
20260508232620 23 197 0.0 0.0 0.00 0.00 0.00 41 1011.8
20260508231947 23 164 0.0 0.0 0.00 0.00 0.00 44 1011.8
20260508231334 23 139 0.0 0.0 0.00 0.00 0.00 44 1011.9
20260508230708 22 172 0.0 0.0 0.00 0.00 0.00 44 1011.8
20260508230039 23 169 0.0 0.0 0.00 0.00 0.00 43 1011.9
20260508225412 23 188 0.0 0.0 0.00 0.00 0.00 42 1012.0
20260508224739 23 195 0.0 0.0 0.00 0.00 0.00 41 1012.1
20260508224109 24 37 0.0 1.6 0.00 0.00 0.00 41 1012.1
20260508223453 24 136 0.0 0.0 0.00 0.00 0.00 40 1012.1
20260508222830 25 136 0.0 0.0 0.00 0.00 0.00 38 1012.1
20260508222153 25 159 0.0 0.0 0.00 0.00 0.00 38 1012.1
20260508221525 25 167 0.0 0.0 0.00 0.00 0.00 39 1012.1
20260508220900 25 165 0.0 0.0 0.00 0.00 0.00 42 1012.1
20260508220226 25 167 0.0 0.0 0.00 0.00 0.00 39 1012.1
20260508215604 25 204 0.0 0.0 0.00 0.00 0.00 40 1012.1
20260508214938 25 87 0.0 0.0 0.00 0.00 0.00 38 1012.1
20260508214310 25 138 0.0 0.0 0.00 0.00 0.00 38 1012.0
20260508213642 25 116 0.0 0.0 0.00 0.00 0.00 39 1012.1
20260508213025 25 186 0.0 0.0 0.00 0.00 0.00 38 1012.2
20260508212413 24 157 0.0 0.0 0.00 0.00 0.00 37 1012.2
20260508211803 24 190 0.0 0.0 0.00 0.00 0.00 41 1012.3
20260508211131 24 191 0.0 0.0 0.00 0.00 0.00 38 1012.4
20260508210458 23 162 0.0 0.0 0.00 0.00 0.00 43 1012.5
20260508205821 23 175 0.0 0.0 0.00 0.00 0.00 40 1012.6
20260508205202 24 140 0.0 0.0 0.00 0.00 0.00 40 1012.7
20260508204554 23 185 0.0 0.0 0.00 0.00 0.00 42 1012.7
20260508203946 23 148 0.0 0.0 0.00 0.00 0.00 40 1012.8
20260508203338 23 158 0.0 0.0 0.00 0.00 0.00 40 1012.9
20260508202708 23 181 0.0 0.0 0.00 0.00 0.00 44 1013.0
20260508202031 23 241 0.0 0.0 0.00 0.00 0.00 41 1013.1
20260508201357 23 89 0.0 0.0 0.00 0.00 0.00 40 1013.3
20260508200726 23 207 0.0 0.0 0.00 0.00 0.00 41 1013.5
20260508200100 23 210 0.0 0.0 0.00 0.00 0.00 40 1013.5
20260508195431 23 217 0.0 1.6 0.00 0.00 0.00 40 1013.6
20260508194811 23 70 0.0 0.0 0.00 0.00 0.00 42 1013.7
20260508194158 23 131 0.0 0.0 0.00 0.00 0.00 40 1013.8
20260508193535 23 149 0.0 1.6 0.00 0.00 0.00 40 1013.9
20260508192915 23 148 0.0 0.0 0.00 0.00 0.00 41 1014.1
20260508192242 23 133 0.0 0.0 0.00 0.00 0.00 39 1014.1
20260508191609 23 138 0.0 3.2 0.00 0.00 0.00 39 1014.3
20260508190943 23 229 0.0 0.0 0.00 0.00 0.00 39 1014.3
20260508190310 23 113 0.0 4.8 0.00 0.00 0.00 42 1014.5
20260508185654 23 209 0.0 1.6 0.00 0.00 0.00 39 1014.5
20260508185034 23 94 0.0 1.6 0.00 0.00 0.00 41 1014.6
20260508184359 23 250 0.0 4.8 0.00 0.00 0.00 41 1014.6
20260508183747 23 245 0.0 3.2 0.00 0.00 0.00 41 1014.8
20260508183122 23 127 0.0 0.0 0.00 0.00 0.00 39 1015.0
20260508182446 23 201 0.0 3.2 0.00 0.00 0.00 40 1015.1
20260508181809 23 144 0.0 0.0 0.00 0.00 0.00 42 1015.2
20260508181202 23 136 0.0 0.0 0.00 0.00 0.00 36 1015.3
20260508180545 23 205 0.0 0.0 0.00 0.00 0.00 38 1015.3
20260508175936 23 113 0.0 0.0 0.00 0.00 0.00 39 1015.4
20260508175312 22 146 0.0 0.0 0.00 0.00 0.00 40 1015.7
20260508174650 22 58 0.0 3.2 0.00 0.00 0.00 38 1015.7
20260508174033 22 207 0.0 1.6 0.00 0.00 0.00 39 1015.8
20260508173425 22 140 0.0 1.6 0.00 0.00 0.00 40 1016.0
20260508172805 22 131 0.0 0.0 0.00 0.00 0.00 39 1016.1
20260508172143 22 255 0.0 4.8 0.00 0.00 0.00 37 1016.2
20260508171528 22 221 0.0 0.0 0.00 0.00 0.00 39 1016.2
20260508170900 22 231 0.0 0.0 0.00 0.00 0.00 39 1016.4
20260508170240 22 195 0.0 0.0 0.00 0.00 0.00 40 1016.6
20260508165607 22 200 0.0 0.0 0.00 0.00 0.00 42 1016.6
20260508164955 22 155 0.0 0.0 0.00 0.00 0.00 41 1016.7
20260508164344 21 169 0.0 0.0 0.00 0.00 0.00 42 1016.8
20260508163713 21 70 0.0 0.0 0.00 0.00 0.00 40 1016.9
20260508163045 21 218 0.0 0.0 0.00 0.00 0.00 44 1017.0
20260508162419 21 293 0.0 0.0 0.00 0.00 0.00 47 1017.1
20260508161754 21 58 0.0 1.6 0.00 0.00 0.00 46 1017.3
20260508161142 21 138 0.0 0.0 0.00 0.00 0.00 45 1017.3
20260508160525 21 230 0.0 0.0 0.00 0.00 0.00 45 1017.4
20260508155911 21 131 0.0 0.0 0.00 0.00 0.00 45 1017.4
20260508155418 21 149 0.0 0.0 0.00 0.00 0.00 47 1017.5
20260508154908 21 148 0.0 0.0 0.00 0.00 0.00 47 1017.7
20260508154357 20 113 0.0 0.0 0.00 0.00 0.00 51 1017.7
20260508153838 20 297 0.0 0.0 0.00 0.00 0.00 52 1017.8
20260508153318 20 290 0.0 0.0 0.00 0.00 0.00 51 1017.9
20260508152811 19 203 0.0 0.0 0.00 0.00 0.00 51 1018.0
20260508152309 19 148 0.0 3.2 0.00 0.00 0.00 53 1018.0
20260508151756 19 61 0.0 0.0 0.00 0.00 0.00 53 1018.0
20260508151301 19 221 0.0 0.0 0.00 0.00 0.00 52 1018.1
20260508150804 19 198 0.0 0.0 0.00 0.00 0.00 52 1018.1
20260508150250 18 139 0.0 0.0 0.00 0.00 0.00 58 1018.2
20260508145739 18 131 0.0 0.0 0.00 0.00 0.00 56 1018.2
20260508145237 18 145 0.0 0.0 0.00 0.00 0.00 59 1018.1
20260508144732 18 142 0.0 0.0 0.00 0.00 0.00 60 1018.1
20260508144212 18 141 0.0 0.0 0.00 0.00 0.00 65 1018.1
20260508143705 17 141 0.0 0.0 0.00 0.00 0.00 65 1018.2
20260508143145 16 121 0.0 0.0 0.00 0.00 0.00 68 1018.2
20260508142639 16 205 0.0 0.0 0.00 0.00 0.00 68 1018.3
20260508142130 16 206 0.0 0.0 0.00 0.00 0.00 70 1018.3
20260508141632 15 52 0.0 0.0 0.00 0.00 0.00 72 1018.4
20260508141135 15 160 0.0 0.0 0.00 0.00 0.00 71 1018.5
20260508140636 15 161 0.0 0.0 0.00 0.00 0.00 71 1018.6
20260508140134 15 160 0.0 0.0 0.00 0.00 0.00 72 1018.6
20260508135641 15 161 0.0 0.0 0.00 0.00 0.00 71 1018.7
20260508135126 15 161 0.0 0.0 0.00 0.00 0.00 72 1018.6
20260508134612 14 160 0.0 0.0 0.00 0.00 0.00 73 1018.6
20260508134105 14 161 0.0 0.0 0.00 0.00 0.00 75 1018.8
20260508133602 13 160 0.0 0.0 0.00 0.00 0.00 78 1018.7
20260508133104 13 160 0.0 0.0 0.00 0.00 0.00 81 1018.8